Ogden, UT

6:55 PM MST on February 25, 2017 (GMT -0700)
Ogden-Hinckley

Weather History for KOGD - January, 2013

Change the Weather History Date:

Monday, January 21, 2013

  Actual Average Record
Temperature  
Mean Temperature 11 °F -  
Max Temperature 16 °F 36 °F 52 °F (1950)
Min Temperature 6 °F 20 °F -26 °F (1937)
Degree Days  
Heating Degree Days 54    
Moisture  
Dew Point 6 °F    
Average Humidity 84    
Maximum Humidity 96    
Minimum Humidity 71    
Precipitation  
Precipitation 0.00 in - - ()
Sea Level Pressure  
Sea Level Pressure 30.57 in    
Wind  
Wind Speed 1 mph (WNW)    
Max Wind Speed 6 mph    
Max Gust Speed -    
Visibility 3 miles    
Events Snow    
Averages and records for this station are not official NWS values.
T = Trace of Precipitation, MM = Missing Value Source: NWS Daily Summary

Daily Weather History Graph

Daily Weather History Graph

Search for Another Location

Airport or City:

Trip Planner

Search our weather history database for the weather conditions in past years. The results will help you decide how hot, cold, wet, or windy it might be!

Date:

Astronomy

Jan. 21, 2013 Rise Set
Actual Time 7:47 AM MST 5:31 PM MST
Civil Twilight 7:17 AM MST 6:01 PM MST
Nautical Twilight 6:44 AM MST 6:35 PM MST
Astronomical Twilight 6:11 AM MST 7:07 PM MST
Moon 1:13 PM MST (1/21) 3:19 AM MST (1/21)
Length of Visible Light 10h 43m
Length of Day
9h 43m
Waxing Gibbous, 75% of the Moon is Illuminated
Jan 21
Waxing Gibbous
Jan 26
Full
Feb 3
Last Quarter
Feb 10
New
Feb 17
First Quarter

Hourly Weather History & Observations

Time (MST) Temp. Windchill Dew Point Humidity Pressure Visibility Wind Dir Wind Speed Gust Speed Precip Events Conditions
12:27 AM 8.6 °F - 5.0 °F 85% 30.48 in 2.5 mi Calm Calm - N/A   Overcast
12:36 AM 8.6 °F - 5.0 °F 85% 30.49 in 3.0 mi Calm Calm - N/A   Overcast
12:53 AM 7.0 °F - 3.9 °F 87% 30.67 in 4.0 mi Calm Calm - N/A   Overcast
1:51 AM 8.6 °F 2.0 °F 5.0 °F 85% 30.49 in 2.5 mi SSE 3.5 mph - 0.00 in Snow Light Snow
1:53 AM 8.1 °F -0.5 °F 5.0 °F 87% 30.67 in 2.0 mi South 4.6 mph - 0.00 in Snow Light Snow
2:43 AM 6.8 °F - 3.2 °F 85% 30.49 in 4.0 mi Calm Calm - 0.00 in   Overcast
2:53 AM 8.1 °F - 3.9 °F 83% 30.67 in 4.0 mi Calm Calm - 0.00 in   Overcast
3:53 AM 8.1 °F - 5.0 °F 87% 30.66 in 4.0 mi Calm Calm - N/A   Overcast
4:53 AM 8.1 °F - 3.9 °F 83% 30.67 in 4.0 mi Calm Calm - N/A   Overcast
5:32 AM 8.6 °F - 3.2 °F 79% 30.48 in 2.0 mi Calm Calm - 0.00 in Snow Light Snow
5:40 AM 8.6 °F - 3.2 °F 79% 30.48 in 1.5 mi Calm Calm - 0.00 in Snow Light Snow
5:50 AM 8.6 °F - 5.0 °F 85% 30.48 in 2.5 mi Calm Calm - 0.00 in Snow Light Snow
5:53 AM 8.1 °F - 5.0 °F 87% 30.67 in 2.5 mi Calm Calm - 0.00 in   Overcast
6:06 AM 8.6 °F - 5.0 °F 85% 30.47 in 3.0 mi Calm Calm - N/A   Overcast
6:53 AM 8.1 °F - 3.9 °F 83% 30.67 in 3.0 mi Calm Calm - N/A   Overcast
7:53 AM 8.1 °F - 3.9 °F 83% 30.69 in 3.0 mi Calm Calm - N/A   Overcast
8:00 AM 8.6 °F - 5.0 °F 85% 30.49 in 2.5 mi Calm Calm - N/A   Overcast
8:30 AM 8.6 °F - 6.8 °F 92% 30.49 in 1.5 mi Calm Calm - N/A   Overcast
8:53 AM 8.1 °F - 6.1 °F 92% 30.71 in 1.5 mi Calm Calm - 0.00 in Snow Light Snow
9:12 AM 6.8 °F - 5.0 °F 92% 30.51 in 2.0 mi Calm Calm - 0.00 in   Overcast
9:24 AM 6.8 °F - 5.0 °F 92% 30.50 in 3.0 mi Calm Calm - 0.00 in   Scattered Clouds
9:53 AM 9.0 °F - 8.1 °F 96% 30.71 in 3.0 mi Calm Calm - 0.00 in   Clear
10:53 AM 10.0 °F - 9.0 °F 95% 30.72 in 3.0 mi Calm Calm - N/A   Clear
11:53 AM 16.0 °F - 8.1 °F 71% 30.67 in 5.0 mi Calm Calm - N/A   Haze
12:53 PM 16.0 °F - 9.0 °F 74% 30.65 in 5.0 mi Calm Calm - N/A   Haze
1:53 PM 15.1 °F 6.4 °F 8.1 °F 74% 30.64 in 4.0 mi NW 5.8 mph - N/A   Haze
2:53 PM 14.0 °F 5.1 °F 8.1 °F 77% 30.62 in 5.0 mi NW 5.8 mph - N/A   Haze
3:53 PM 12.9 °F 6.9 °F 8.1 °F 81% 30.62 in 5.0 mi NW 3.5 mph - N/A   Haze
4:53 PM 12.0 °F 4.1 °F 7.0 °F 80% 30.61 in 4.0 mi NW 4.6 mph - N/A   Haze
5:53 PM 8.1 °F - 5.0 °F 87% 30.63 in 4.0 mi Calm Calm - N/A   Clear
6:53 PM 9.0 °F - 3.9 °F 80% 30.61 in 4.0 mi Calm Calm - N/A   Haze
7:53 PM 9.0 °F - 3.9 °F 80% 30.61 in 4.0 mi Calm Calm - N/A   Haze
8:10 PM 10.4 °F - 6.8 °F 85% 30.41 in 4.0 mi Calm Calm - N/A   Scattered Clouds
8:18 PM 10.4 °F - 5.0 °F 79% 30.41 in 4.0 mi Calm Calm - N/A   Haze
8:53 PM 10.9 °F - 7.0 °F 84% 30.60 in 4.0 mi Calm Calm - N/A   Partly Cloudy
9:32 PM 10.4 °F - 5.0 °F 79% 30.43 in 4.0 mi Calm Calm - N/A   Haze
9:53 PM 10.0 °F - 6.1 °F 84% 30.63 in 4.0 mi Calm Calm - N/A   Overcast
10:11 PM 10.4 °F - 6.8 °F 85% 30.44 in 3.0 mi Calm Calm - N/A   Overcast
10:49 PM 10.4 °F - 6.8 °F 85% 30.43 in 2.5 mi Calm Calm - N/A   Overcast
10:53 PM 10.9 °F - 7.0 °F 84% 30.62 in 2.5 mi Calm Calm - N/A   Overcast
11:23 PM 8.6 °F - 5.0 °F 85% 30.45 in 3.0 mi Calm Calm - N/A   Overcast
11:32 PM 10.4 °F - 6.8 °F 85% 30.44 in 2.0 mi Calm Calm - N/A   Overcast
11:39 PM 10.4 °F - 6.8 °F 85% 30.44 in 1.0 mi Calm Calm - N/A   Overcast
11:53 PM 10.0 °F - 7.0 °F 87% 30.61 in 1.8 mi Calm Calm - N/A   Overcast